Location: Star Dogged Moon Observatory
(29.7756°N, 82.0783°W)
Time: 09:57:16
(UTC-04:00)

ARGOS - Visible Passes

Search period start: 23 April 2017 00:00
Search period end: 03 May 2017 00:00
Orbit: 820 x 835 km, 98.6° (Epoch: 21 April)

Date Brightness Start Highest point End Pass type
(mag) Time Alt. Az. Time Alt. Az. Time Alt. Az.
23 Apr 5.1 21:30:20 13° ENE 21:30:20 13° ENE 21:32:18 10° NE visible
23 Apr 4.6 23:11:51 33° NW 23:11:51 33° NW 23:14:52 10° NNW visible
24 Apr 4.2 22:52:59 41° N 22:52:59 41° N 22:56:24 10° NNW visible
25 Apr 4.0 22:34:06 41° NNE 22:34:06 41° NNE 22:37:45 10° N visible
26 Apr 4.2 22:15:14 33° NE 22:15:14 33° NE 22:18:56 10° N visible
26 Apr 5.6 23:56:44 16° WNW 23:56:44 16° WNW 23:58:15 10° NW visible
27 Apr 4.5 21:56:21 23° ENE 21:56:21 23° ENE 21:59:52 10° NNE visible
27 Apr 5.1 23:37:52 23° WNW 23:37:52 23° WNW 23:40:25 10° NW visible
28 Apr 4.9 21:37:29 16° ENE 21:37:29 16° ENE 21:40:24 10° NNE visible
28 Apr 4.6 23:18:59 34° NW 23:18:59 34° NW 23:22:15 10° NNW visible
29 Apr 4.0 23:00:07 46° NNW 23:00:07 46° NNW 23:03:52 10° NNW visible
30 Apr 3.7 22:41:15 50° NNE 22:41:15 50° NNE 22:45:17 10° N visible
01 May 3.9 22:22:23 40° NE 22:22:23 40° NE 22:26:32 10° N visible
02 May 5.7 00:03:54 14° WNW 00:03:54 14° WNW 00:05:16 10° NW visible
02 May 4.2 22:03:31 28° ENE 22:03:31 28° ENE 22:07:35 10° NNE visible
02 May 5.2 23:45:02 22° WNW 23:45:02 22° WNW 23:47:38 10° NW visible
